Погода в Абакане

Россия / Республика Хакасия     53°43′16″N   91°26′32″E
темп.,
°C
ветер,
м/с
пор.,
м/с
влажн.,
%
обл.,
%
осадки,
мм/ч
давл.,
гПа
погр.,
м
21 апреля, ср
ср2101:00−4ссз464742 0.0 1025380
04:00−4с2251100 0.0 1025196
07:00−4св235253 0.0 1026381
10:00−1в3340100 0.0 10241641
13:00+1всв3330100 0.0 10222078
16:00+2св5429100 0.0 10221988
19:00+1св5536100 0.0 10231330
22:00−2с2447100 0.0 1025168
22 апреля, чт
чт2201:00−3ссз236496 0.0 1027122
04:00−3ссз2367100 0.0 1028104
07:00−3с37535 0.0 1030567
10:000с55475 0.0 1032991
13:00+3с443995 0.0 10331769
16:00+4с4442100 0.1 10331696
19:00+3ссз565161 0.2 10361192
22:000с357986 0.0 1038260
23 апреля, пт
пт2301:00−1ссз227268 0.0 103849
04:00−2ссз227263 0.0 103867
07:00−2с2464100 0.0 1039284
10:00+1с4548100 0.0 1038845
13:00+5с4438100 0.0 10361559
16:00+5св3439100 0.0 10351655
19:00+4ссз2357100 0.0 1035926
22:00+1зсз1296100 1.0 1036176
24 апреля, сб
сб2401:00+1ссв239498 1.4 1034389
04:00+1св1293100 0.2 1033224
07:000всв139599 0.6 1032273
10:00+2ссв117495 0.1 1031771
13:00+3ссз336799 0.2 1029792
16:00+4ссз3464100 0.1 10281014
19:00+4зсз3473100 0.1 1028735
22:00+3зсз3575100 0.0 1028468
25 апреля, вс
вс2501:00+1сз3689100 0.0 1028328
04:00+1зсз2597100 0.2 1029255
07:00+1сз2592100 0.3 1030372
10:00+4сз4468100 0.1 1030988
13:00+5ссз4558100 0.3 10301343
16:00+7ссз5654100 0.2 10291471
19:00+5с3667100 0.2 1031778
22:00+4сз2677100 0.0 1032705